GFSSE_850_spd_000.txt.gz
Wind_Speed
17 21 24 25 25 26 24 23 24 23 22 23 25 29 29 24 22 19 17 17 14 12 13 13 12 11 10 8 10 8 7 6 5 7 6 7 7 7 7 6 6 4 4
20 21 23 26 27 25 25 24 24 24 24 25 29 30 22 20 21 19 18 17 13 11 12 12 12 11 10 10 11 10 6 4 5 7 7 8 5 6 6 6 4 5 8
22 23 25 25 26 26 25 25 25 24 26 27 28 24 20 20 21 20 18 15 12 10 10 11 10 10 10 10 9 9 8 5 5 5 6 7 5 6 5 4 5 7 10
24 24 24 24 24 24 24 25 25 26 28 27 26 24 20 18 18 17 14 12 11 9 9 8 8 8 9 10 9 9 8 6 4 1 4 4 6 5 4 5 5 8 9
25 25 24 23 23 24 25 26 26 25 23 21 20 18 15 15 15 14 11 11 10 8 7 6 5 5 7 9 8 7 6 8 5 5 4 5 4 4 5 7 7 10 11
25 24 24 23 23 25 26 26 25 23 22 20 19 18 16 15 14 12 10 9 7 6 5 5 4 5 7 8 8 6 5 7 7 6 3 5 4 3 5 7 9 10 9
25 24 23 23 24 25 24 23 21 20 20 20 19 18 15 13 11 9 7 5 3 4 5 5 5 6 6 6 6 5 4 5 3 3 2 5 3 3 5 7 7 9 10
24 23 22 21 23 23 23 21 19 18 17 17 15 13 12 10 9 6 4 2 2 4 4 5 5 5 4 4 4 4 3 4 1 2 4 3 3 4 4 6 7 8 10
22 21 21 21 21 21 20 18 17 16 15 13 11 10 9 8 7 4 1 1 1 1 2 4 4 3 1 1 2 4 3 2 3 3 2 5 4 4 5 5 6 8 9
22 21 21 20 20 20 19 17 15 14 12 10 9 9 8 6 3 2 1 1 2 3 2 2 2 3 1 0 1 4 5 3 4 1 2 5 4 4 5 6 5 8 9
19 18 17 18 19 18 18 16 14 12 11 9 9 8 6 5 4 3 3 3 1 2 2 1 2 2 2 1 1 1 3 2 2 1 2 2 4 5 5 6 7 8 9
20 18 17 16 16 16 15 14 12 11 10 9 9 7 5 3 3 0 3 7 2 1 2 1 5 5 6 3 2 3 3 4 4 2 3 3 3 7 4 6 9 9 10
19 17 16 15 15 14 15 13 12 11 9 8 8 6 6 3 3 5 5 3 3 4 3 5 8 10 8 8 8 7 5 6 8 7 6 6 6 6 5 6 10 11 11
20 17 15 15 14 14 12 12 11 10 10 9 8 5 5 5 6 5 5 7 7 6 5 6 7 8 11 10 12 10 9 9 10 14 8 7 7 8 8 7 8 12 12
19 20 16 14 15 13 14 12 10 12 11 8 6 7 8 8 7 9 8 9 9 11 11 12 9 12 15 15 15 11 13 11 11 14 12 12 10 10 10 9 9 10 13
18 19 15 13 15 12 12 11 11 10 12 10 10 8 11 9 11 14 12 11 8 9 12 15 15 16 16 17 15 12 12 15 12 12 13 14 15 13 13 12 10 12 13
20 19 20 17 15 13 11 12 12 13 13 12 11 12 12 12 14 12 12 9 11 10 13 14 14 16 16 15 16 13 11 12 14 11 13 16 18 16 15 15 14 13 16
21 21 19 16 14 15 15 17 17 16 15 15 15 14 12 15 14 13 12 12 13 13 13 12 13 14 15 16 17 16 17 15 15 17 17 15 18 18 18 19 18 16 16
19 19 18 16 14 14 12 12 13 17 17 18 18 14 14 13 14 14 14 15 14 12 12 11 12 14 14 14 17 18 15 14 14 16 18 17 19 21 20 20 22 22 20
19 18 18 16 13 11 10 10 9 11 11 13 14 12 13 11 10 13 15 13 10 9 9 10 13 14 15 18 19 17 15 14 13 12 13 16 19 20 22 23 21 23 24
21 19 18 19 15 14 11 9 8 7 7 9 7 8 11 12 10 12 12 8 8 9 9 11 14 15 15 17 20 18 15 10 8 5 5 7 12 20 25 25 26 25 26
23 20 20 19 16 12 9 9 8 6 6 7 6 8 8 7 8 8 12 14 10 9 10 11 11 14 16 14 15 16 11 10 3 5 10 13 14 8 12 20 24 24 25
26 22 21 17 17 13 11 9 9 8 8 8 8 9 7 7 9 12 7 6 6 6 7 11 12 12 13 11 10 8 5 5 22 13 12 9 11 10 9 12 15 21 25
28 23 21 19 17 16 13 12 11 10 11 10 7 8 8 7 10 3 4 1 1 7 11 9 9 8 8 9 8 8 8 10 10 12 18 17 14 13 14 16 17 20 19
31 27 23 23 20 18 16 13 11 13 12 13 10 10 10 8 3 4 5 3 7 13 10 7 7 5 6 6 7 9 8 8 7 11 18 22 19 17 17 17 18 20 22
33 29 27 27 24 21 17 12 14 13 14 14 14 13 11 13 8 6 7 7 12 12 6 5 4 6 5 5 7 8 7 8 10 10 16 20 23 22 20 17 16 18 20

GFSSE_850_spd_006.txt.gz
Wind_Speed
22 23 26 30 30 29 28 27 25 24 23 26 24 24 25 23 20 19 16 14 11 10 9 8 8 7 7 8 8 6 5 5 3 4 4 3 4 4 3 2 3 4 5
22 23 26 28 27 27 26 24 22 22 22 23 24 24 24 22 19 16 13 11 10 9 8 7 9 8 7 7 8 7 5 5 4 3 3 4 4 3 3 3 5 7 8
18 20 23 23 24 22 22 23 20 20 21 23 23 23 21 18 15 13 10 9 9 8 7 6 6 6 7 8 8 8 6 4 3 2 4 5 4 4 3 4 7 7 9
19 22 23 20 20 20 21 21 22 23 26 22 20 19 16 15 14 13 9 8 7 6 5 4 4 5 7 8 8 7 6 4 1 2 1 2 4 3 2 2 6 7 10
21 22 21 21 21 22 21 21 23 26 24 19 18 17 17 16 14 11 8 6 5 4 3 4 3 4 6 7 7 6 4 4 2 1 2 1 4 4 3 3 6 8 10
23 22 22 21 21 22 22 21 22 24 20 17 17 16 16 13 10 7 7 5 3 2 2 2 3 5 6 6 5 4 3 2 2 2 3 1 3 4 4 4 7 9 9
22 21 21 20 21 20 20 21 22 22 20 18 14 14 13 11 7 6 5 2 1 1 1 3 4 5 5 6 5 3 3 3 2 1 2 3 3 3 2 3 6 5 6
21 20 20 19 20 20 21 21 20 18 17 15 13 12 11 9 7 5 2 1 1 0 3 5 6 7 6 5 4 4 3 3 5 4 3 3 4 2 1 3 4 8 7
19 19 20 21 21 21 20 18 17 16 15 14 13 11 9 8 5 3 1 2 2 3 5 6 7 7 6 4 5 4 3 2 2 2 2 5 3 3 3 4 5 7 10
19 19 20 22 22 21 19 17 16 14 14 14 11 8 7 6 4 3 2 3 3 4 4 6 6 6 6 5 5 7 6 4 3 4 5 4 4 5 5 5 6 7 9
21 20 21 21 20 20 17 16 15 15 13 13 11 9 6 4 4 2 5 5 4 5 5 4 5 5 5 5 4 6 7 6 5 5 5 4 6 7 7 7 7 8 10
23 21 21 21 21 19 17 15 14 13 12 11 11 9 5 5 3 3 3 4 7 3 4 4 5 6 5 5 6 8 9 8 7 6 5 7 6 8 8 7 10 8 10
23 22 21 20 19 19 18 17 15 13 12 11 10 8 5 4 1 3 3 4 4 4 4 4 5 4 6 6 9 10 11 9 9 7 8 9 10 9 9 11 7 9 11
24 21 19 18 19 19 16 15 13 13 13 11 10 9 7 5 3 2 3 3 5 7 7 7 8 8 8 10 11 10 10 9 10 11 10 9 9 8 7 11 11 9 10
24 22 20 18 18 17 17 15 14 13 13 11 12 11 10 7 7 5 5 6 8 8 10 10 10 11 12 13 13 14 12 12 12 13 11 8 9 10 8 9 11 11 10
22 22 20 18 17 17 17 14 13 13 12 13 12 11 11 10 10 8 9 9 9 9 10 11 12 13 13 14 11 11 12 12 12 12 12 11 12 11 11 11 10 13 11
20 20 20 20 16 17 17 14 14 11 14 15 16 13 13 11 10 11 9 8 9 10 12 13 14 14 15 13 12 11 12 13 13 13 13 12 12 13 13 12 13 12 14
22 23 20 18 19 18 17 16 15 14 14 14 13 14 13 13 13 12 11 10 12 12 13 14 13 13 13 14 15 14 14 11 11 10 11 15 16 16 15 14 14 14 13
23 21 22 20 19 18 16 17 17 16 15 14 15 16 15 14 13 13 13 14 15 14 15 12 12 12 12 13 14 13 12 9 7 8 8 10 13 16 14 14 14 14 15
23 24 21 23 21 17 16 17 17 17 16 18 19 18 17 16 15 15 13 10 13 12 10 11 12 12 12 11 12 11 8 4 2 3 3 3 5 9 14 15 14 15 17
24 26 24 24 20 20 20 21 20 19 18 18 20 19 17 17 17 16 16 13 10 10 13 13 12 13 10 13 11 10 3 4 3 4 3 3 5 6 6 8 15 17 18
26 25 24 22 21 21 22 20 19 17 18 16 15 16 17 15 14 13 11 10 14 16 15 11 10 10 11 9 11 10 5 2 3 4 2 4 6 7 7 7 7 9 13
30 26 24 23 22 23 21 21 20 19 18 16 16 15 13 10 9 9 10 13 12 6 3 7 10 10 9 8 7 6 4 2 10 1 2 5 8 7 7 9 10 11 11
32 28 25 23 23 24 22 22 22 18 15 12 11 11 11 11 11 10 11 6 6 3 4 9 7 8 9 8 6 4 4 7 4 4 6 7 10 9 8 8 8 11 14
33 30 27 25 25 26 25 23 21 19 16 14 13 13 14 14 12 9 7 5 6 6 8 9 7 6 6 6 4 4 4 4 4 8 9 13 9 10 10 10 10 11 9
34 31 29 28 28 28 27 25 23 20 17 15 12 12 12 13 11 9 8 9 7 6 9 5 4 4 4 4 3 1 2 4 5 6 12 15 13 13 13 13 13 12 13

GFSSE_850_spd_009.txt.gz
Wind_Speed
18 20 22 31 32 28 26 24 24 25 26 25 24 25 23 21 18 15 13 11 10 9 10 9 10 9 10 9 10 8 6 5 5 7 6 5 5 4 5 4 4 5 6
21 23 25 29 25 23 24 22 22 25 27 23 23 24 21 19 16 14 13 11 9 8 8 8 9 10 10 10 10 8 6 4 4 5 5 5 6 5 5 4 7 6 7
22 22 24 25 23 22 23 21 22 23 23 22 23 22 19 17 13 11 9 8 7 7 7 7 7 8 9 9 9 8 5 3 2 3 5 7 6 6 6 6 7 8 10
22 23 22 22 22 21 20 20 21 21 22 21 21 19 16 13 10 7 7 6 6 5 5 4 5 7 9 9 8 7 6 3 2 1 3 5 5 6 6 4 5 7 9
22 22 20 19 18 18 19 20 21 23 22 20 19 16 13 11 10 6 5 5 5 3 3 3 5 7 8 9 8 6 5 4 3 3 0 3 7 5 6 4 5 8 9
22 21 18 17 17 18 19 19 22 22 19 17 16 15 14 12 9 5 4 4 2 3 2 4 6 7 8 8 7 6 4 4 5 5 1 2 6 4 6 4 4 8 8
22 20 18 18 18 18 18 20 23 19 16 16 15 14 12 9 5 4 3 2 4 3 4 6 8 9 8 7 6 6 6 5 3 3 3 1 3 4 3 4 4 6 7
20 19 18 18 17 18 19 21 21 17 15 13 11 11 9 6 4 3 1 3 3 3 6 8 8 8 7 7 6 6 5 6 5 3 2 2 2 2 2 1 2 3 6
19 19 19 18 18 18 18 18 17 15 13 11 10 9 8 6 3 2 2 4 2 4 6 6 7 7 6 5 6 7 6 6 6 4 4 3 3 2 2 1 3 4 6
17 17 18 18 18 18 18 16 15 14 14 12 10 8 6 5 4 3 3 4 4 4 5 6 6 6 6 5 5 6 6 6 7 6 5 3 4 3 3 3 3 5 7
18 17 18 19 19 18 17 15 13 14 13 12 9 6 6 4 4 4 4 5 5 4 4 6 4 6 6 5 5 6 8 7 6 7 6 4 5 5 4 4 5 6 7
19 20 20 20 21 19 17 16 15 13 12 12 9 8 7 5 5 4 4 4 4 2 4 5 5 5 6 5 6 8 8 9 7 6 6 6 6 6 5 7 6 7 9
21 20 21 20 20 19 18 16 14 13 13 11 10 10 8 5 3 2 2 2 3 3 3 4 5 6 7 7 9 10 10 9 8 8 7 9 9 8 6 8 6 7 8
23 21 21 22 21 20 17 16 14 13 13 12 11 10 10 6 3 3 3 2 3 4 5 6 8 8 9 11 12 12 13 11 9 10 10 9 8 6 5 6 11 7 9
23 22 21 21 22 20 18 17 16 14 14 13 13 12 11 8 6 6 6 5 7 8 8 8 9 10 11 12 12 12 11 12 11 10 10 9 8 7 7 6 8 11 9
24 23 20 19 18 18 19 17 16 15 14 15 13 12 11 11 10 9 9 8 8 8 8 10 11 12 12 12 12 12 11 12 13 13 11 10 10 11 10 9 9 11 13
23 22 21 19 18 18 19 17 15 14 14 14 14 13 12 11 11 11 10 9 8 8 10 12 13 14 13 12 12 14 14 14 13 14 15 13 12 11 11 10 11 11 12
22 23 22 21 19 18 18 17 15 14 13 15 15 15 15 13 13 11 10 9 9 11 12 14 13 13 13 13 15 15 15 13 11 11 11 12 14 14 14 14 13 13 13
21 20 22 21 20 19 17 17 17 16 17 15 15 15 14 13 13 13 10 9 11 13 13 14 11 10 12 13 12 11 11 10 9 7 8 8 10 11 14 14 13 13 13
22 21 21 24 20 18 18 17 17 17 17 17 17 17 16 17 14 13 12 11 10 11 12 10 11 12 11 11 10 9 9 4 3 3 3 4 4 6 7 11 13 12 13
26 24 25 24 24 21 21 19 20 19 18 17 16 15 17 16 16 14 13 12 12 10 10 12 12 11 7 9 8 7 4 3 4 3 2 3 5 6 5 5 7 12 13
29 26 26 26 22 24 24 22 20 17 16 16 15 16 16 16 15 15 14 13 10 11 12 9 6 6 7 7 5 6 4 0 1 2 2 4 6 6 6 6 6 6 8
30 29 27 25 22 23 24 23 21 19 18 17 18 18 16 14 13 12 11 11 13 9 4 3 7 7 4 6 5 3 3 1 6 2 2 5 8 7 7 6 7 8 10
31 29 29 25 23 24 24 25 24 22 17 14 14 12 12 12 12 12 11 12 9 6 4 5 6 6 5 4 5 4 4 3 3 2 3 4 6 6 6 7 7 7 7
31 31 29 27 26 27 26 26 24 22 19 17 13 12 12 13 13 13 11 9 7 8 6 5 5 4 4 5 3 3 4 4 4 2 6 7 5 6 9 11 10 9 9
31 30 31 30 30 29 28 27 27 24 20 18 15 13 14 15 16 14 11 9 9 9 7 6 5 3 3 3 3 2 1 2 4 5 8 9 10 7 11 13 14 13 11

GFSSE_850_spd_015.txt.gz
Wind_Speed
16 19 23 25 27 26 26 26 26 25 24 25 24 22 19 16 16 15 14 13 13 13 13 13 12 13 13 12 11 10 9 9 9 13 15 14 9 10 10 10 10 6 4
19 22 23 25 23 27 27 26 24 25 24 24 23 20 17 15 14 14 13 12 12 12 11 11 11 13 12 11 11 9 8 7 9 16 12 14 13 11 11 9 12 6 8
21 24 25 23 23 23 24 25 23 24 23 22 20 17 16 14 13 12 11 10 10 10 9 9 11 12 11 11 10 9 7 6 9 17 12 6 11 9 10 8 6 8 9
23 19 19 21 21 21 21 22 22 22 22 20 17 15 13 11 10 10 10 9 9 9 9 10 11 11 10 10 9 8 8 8 8 11 9 7 4 9 9 9 9 10 10
21 18 18 21 20 19 21 21 20 20 20 17 15 13 9 7 7 8 8 8 9 9 9 10 10 10 9 10 9 8 7 8 7 9 8 7 6 6 8 10 9 9 12
20 17 19 18 18 18 18 18 18 18 18 16 14 10 7 6 6 6 7 8 8 7 8 9 9 9 8 8 8 8 7 7 6 7 8 6 2 6 8 10 9 9 9
19 15 16 16 16 16 17 17 17 16 16 14 11 8 8 6 5 5 6 7 7 6 7 9 9 8 7 7 8 8 7 8 5 2 7 5 1 4 8 9 9 8 9
17 16 15 17 16 17 17 17 17 16 14 12 10 10 7 4 4 4 5 7 6 6 7 8 8 8 7 7 8 10 11 8 5 3 4 5 2 4 6 7 7 8 6
18 17 15 15 17 18 19 17 16 15 13 12 11 7 5 3 1 2 5 6 6 6 6 6 7 7 7 6 8 9 12 13 8 5 4 3 2 3 5 5 6 6 9
21 16 15 14 14 14 19 17 14 13 11 10 8 6 4 2 3 4 6 5 6 5 5 6 5 7 7 9 9 9 10 8 6 4 5 3 3 1 3 4 5 7 8
17 19 17 15 15 14 12 14 13 12 10 8 7 5 3 1 4 4 7 9 6 5 4 6 6 10 10 11 12 12 11 12 3 2 3 7 5 2 1 2 6 5 7
19 18 17 18 16 15 12 13 10 9 7 7 5 8 2 5 5 5 8 7 7 5 4 9 9 8 9 8 7 12 8 6 9 3 4 6 7 3 2 4 4 6 6
16 17 18 18 16 15 15 9 9 8 9 7 9 9 5 4 5 6 8 5 5 8 8 7 7 8 6 4 6 7 8 8 5 12 6 9 11 5 4 3 5 7 8
18 19 18 15 16 15 14 11 10 10 9 8 8 11 8 6 5 5 6 2 5 4 7 8 6 8 7 7 7 7 6 6 5 3 9 12 10 5 4 4 7 5 8
20 19 19 18 18 16 13 11 12 11 10 9 9 10 8 7 7 6 6 6 6 6 10 6 9 7 8 8 8 6 7 7 7 5 6 12 10 6 4 5 4 8 7
20 20 19 18 17 16 15 12 12 11 10 10 10 9 10 8 9 10 7 7 7 8 10 6 6 8 7 8 9 8 10 9 8 8 6 11 11 7 6 7 7 6 8
21 20 20 19 17 17 16 15 13 12 11 12 11 11 11 14 11 10 8 8 8 11 12 9 8 7 7 7 7 9 9 8 7 7 5 4 9 9 5 6 7 7 7
22 22 21 18 18 18 16 15 14 13 12 12 11 12 11 13 12 8 9 8 9 7 11 10 6 6 9 7 9 8 8 6 5 5 3 4 4 6 9 8 6 9 8
23 23 22 21 19 19 18 16 14 15 15 14 12 12 12 11 12 10 10 11 12 11 12 8 4 6 8 8 8 7 5 4 4 1 2 3 1 2 3 7 9 11 10
23 23 22 22 22 20 20 21 17 16 13 12 12 14 16 17 13 11 10 14 9 10 7 4 5 8 8 5 6 5 3 1 1 1 2 2 2 2 1 2 7 4 6
24 24 23 24 24 22 21 19 16 15 15 14 14 13 15 14 11 16 10 8 9 6 5 6 7 7 5 3 6 3 4 1 1 1 1 1 2 1 0 3 4 3 6
27 26 25 25 26 24 20 18 19 16 13 14 13 16 14 12 11 10 7 8 10 5 10 6 5 2 4 3 4 3 3 5 4 3 1 3 3 2 1 2 2 8 2
30 30 28 28 27 26 23 17 20 15 16 10 14 12 12 11 12 12 11 10 7 9 6 7 2 3 2 4 4 3 3 3 2 3 3 1 3 1 2 3 2 1 7
31 29 29 29 30 26 25 21 21 17 15 13 12 11 10 10 11 11 11 9 10 5 8 3 3 3 2 2 3 0 3 3 5 5 5 2 0 1 1 1 3 4 2
31 30 29 31 30 28 26 24 21 18 15 13 12 11 15 13 12 12 11 9 8 6 8 6 4 4 3 3 2 1 1 1 2 4 6 3 3 3 2 4 3 3 6
32 31 31 32 33 31 29 26 27 21 21 15 15 12 10 11 10 13 12 12 8 7 8 5 6 5 6 7 5 3 2 2 1 4 7 7 6 8 5 6 7 6 7

GFSSE_850_spd_021.txt.gz
Wind_Speed
24 27 28 32 27 28 28 29 29 26 26 24 24 22 21 20 18 19 17 16 15 15 14 14 14 13 13 12 11 14 12 12 15 16 15 12 10 13 17 15 13 9 11
26 27 31 30 29 29 29 29 28 25 24 22 20 19 19 18 18 17 16 14 14 13 13 12 12 13 12 12 12 13 12 12 11 9 14 14 12 13 13 13 11 13 14
28 30 28 28 29 28 27 27 26 24 22 20 19 18 17 17 16 16 14 13 12 12 12 11 11 12 11 11 13 13 10 10 11 9 7 12 11 11 12 9 13 13 14
28 29 26 25 27 25 26 27 26 23 21 20 19 17 16 16 15 14 13 12 11 11 10 10 10 10 11 10 11 14 10 9 9 7 10 8 8 9 10 11 12 16 17
26 26 27 26 25 25 25 26 25 22 20 18 16 14 14 14 13 13 11 10 10 10 10 10 10 11 11 11 10 12 11 9 9 12 8 8 6 8 12 12 14 14 16
23 25 25 25 25 24 24 24 23 21 18 15 12 12 12 11 12 10 10 9 9 9 9 10 11 12 13 14 12 11 11 12 11 10 8 5 6 8 10 13 13 13 14
21 23 24 24 24 23 24 23 21 19 16 14 11 11 10 10 9 9 10 9 8 9 10 10 12 13 15 15 14 10 10 10 7 4 7 4 4 7 10 12 13 11 12
23 24 25 25 24 23 22 21 19 17 15 12 10 10 9 8 8 10 11 11 10 9 10 11 12 14 16 17 15 15 10 9 8 9 6 5 5 6 9 10 12 11 11
21 23 23 24 23 22 21 20 19 17 14 10 10 8 8 8 9 11 9 13 11 10 11 11 13 16 17 16 13 14 12 6 16 7 3 1 4 6 8 10 11 10 10
17 20 22 23 23 22 21 19 18 15 13 12 10 6 6 7 7 7 10 12 11 9 12 13 13 12 14 11 9 7 6 9 12 9 2 4 3 4 7 9 11 12 11
16 17 22 23 23 21 20 18 16 15 14 11 8 6 7 4 6 4 8 10 9 10 10 9 10 10 10 9 12 18 3 5 7 11 6 5 4 4 5 8 9 11 11
19 17 17 22 22 20 19 17 15 13 10 9 9 6 7 4 2 1 5 7 5 10 9 6 9 9 9 10 11 14 14 11 9 12 9 10 5 3 3 6 8 10 10
22 18 18 16 18 17 18 15 13 9 8 8 7 7 2 2 2 2 5 3 4 9 5 7 7 6 7 8 8 9 12 12 11 10 9 10 7 1 2 5 7 8 9
29 25 25 16 15 18 15 5 11 9 8 5 3 7 5 3 2 2 2 4 5 5 7 10 8 8 5 8 5 6 5 9 7 9 7 7 8 8 2 5 7 8 9
32 29 27 21 18 21 19 11 11 8 5 4 7 2 3 7 3 3 3 5 6 4 7 7 8 8 10 6 5 7 8 6 6 7 7 6 6 8 3 4 7 6 8
36 31 28 25 25 22 20 15 11 7 12 5 9 6 5 6 7 6 3 2 1 5 7 11 10 8 5 6 6 6 5 6 1 5 4 2 4 3 4 2 3 7 9
31 30 27 27 28 23 22 20 16 17 15 8 7 8 7 7 6 10 9 3 2 4 6 9 7 3 3 6 6 3 5 5 3 6 6 3 4 3 3 2 1 5 5
28 32 33 30 28 20 26 26 21 19 15 12 12 9 11 9 12 8 6 4 5 7 7 12 9 2 3 4 5 2 4 2 1 4 3 2 2 2 5 4 1 2 3
31 29 32 28 22 20 19 27 24 22 16 14 17 10 12 10 9 8 3 5 7 10 11 10 2 1 4 7 5 5 2 4 3 4 6 5 2 2 1 2 2 3 3
32 31 29 25 22 22 17 14 17 21 20 14 17 15 15 13 12 10 6 11 8 9 9 4 3 4 7 5 4 2 2 4 3 2 6 7 5 8 8 4 2 4 3
32 34 33 31 26 24 23 20 18 18 14 14 15 14 13 12 14 12 11 11 5 6 3 4 7 10 3 3 6 2 8 1 6 6 8 6 3 4 2 3 3 5 3
37 37 36 34 31 25 26 24 21 21 20 15 14 15 15 15 13 12 8 11 8 8 7 7 6 5 5 3 6 3 3 8 6 7 8 3 7 5 2 5 6 8 6
40 40 39 36 34 34 26 26 24 19 21 21 21 17 16 14 17 10 11 10 10 13 10 7 4 10 8 5 7 4 4 3 7 8 6 1 3 3 7 3 4 8 4
44 40 39 37 35 36 34 29 28 24 25 24 12 16 17 12 13 11 14 11 11 12 11 8 4 7 9 7 2 4 4 1 3 6 8 4 1 1 2 2 4 6 6
46 46 42 39 37 33 36 37 32 23 24 19 16 15 16 18 16 10 12 12 15 13 12 10 6 8 15 11 7 6 3 3 4 2 8 8 5 7 5 4 4 6 4
48 47 46 42 39 35 31 32 32 27 21 24 20 20 21 21 17 11 16 15 14 14 17 12 10 9 13 14 12 9 8 2 1 2 2 1 6 9 11 7 7 8 8

GFSSE_850_spd_024.txt.gz
Wind_Speed
29 30 33 33 29 29 31 29 29 30 30 28 24 22 21 20 17 17 16 14 13 14 14 14 14 13 12 12 11 11 12 15 15 14 11 10 11 12 13 11 11 9 11
27 30 29 29 30 32 30 29 28 28 26 24 22 20 20 17 16 16 14 13 13 14 14 14 13 13 13 12 12 12 12 10 10 13 14 10 12 10 10 10 10 11 13
28 30 26 30 31 31 29 27 26 25 23 21 20 19 18 16 15 13 13 13 13 13 13 13 12 12 13 12 11 10 12 11 10 10 13 10 11 10 9 7 10 13 12
31 30 28 29 29 30 28 26 24 23 21 20 19 18 16 15 14 12 12 11 12 12 12 12 12 12 12 12 10 8 9 10 11 10 12 11 8 8 7 10 10 12 13
31 28 27 27 27 27 28 26 24 22 20 19 17 16 15 14 13 12 11 10 11 12 14 13 13 14 12 12 9 8 8 8 12 11 10 11 5 10 11 11 12 14 13
29 26 26 26 25 26 26 24 22 21 18 16 14 14 13 12 12 12 10 11 11 12 14 14 14 14 14 13 11 9 10 8 11 9 8 9 4 7 9 12 11 12 12
28 28 27 25 24 25 25 23 21 19 16 14 12 12 12 12 12 12 12 12 11 12 13 15 15 15 15 15 12 9 7 8 7 5 4 5 4 7 9 12 9 11 10
27 27 26 25 24 23 23 22 20 18 15 12 12 12 12 11 11 12 14 13 12 12 12 13 14 15 14 13 10 9 8 8 11 8 5 5 6 7 8 11 10 10 10
24 26 26 25 23 22 22 21 19 17 14 12 12 11 11 9 10 11 12 12 11 12 11 14 16 15 12 11 9 11 12 6 10 3 5 7 6 7 9 10 9 10 11
22 23 25 25 24 23 22 21 18 16 13 12 11 9 9 8 8 10 10 11 11 11 12 13 13 11 10 10 8 12 5 7 8 3 5 6 7 7 7 9 10 10 10
22 22 24 24 24 22 21 20 18 16 13 12 9 8 6 4 7 8 10 12 11 10 11 11 9 10 8 8 11 10 9 14 10 11 7 5 6 6 7 9 10 11 11
26 23 23 24 23 22 21 20 18 15 13 10 9 8 5 4 3 5 7 8 9 9 7 8 6 5 7 6 8 8 8 12 11 9 9 7 4 5 6 9 11 11 11
20 24 25 25 23 23 22 20 17 15 12 11 10 7 4 2 3 4 7 6 6 6 4 5 6 4 6 6 6 6 8 8 9 7 6 8 5 4 6 7 9 11 11
24 23 25 25 24 23 21 17 14 13 13 13 10 8 6 4 2 3 4 4 3 5 5 6 5 6 5 3 2 2 6 5 4 5 4 5 5 1 7 7 9 10 12
27 25 26 24 24 22 21 15 17 15 14 11 9 7 5 5 2 1 3 2 3 1 2 4 5 4 4 6 7 3 7 5 2 7 7 4 3 3 3 8 10 8 10
29 26 25 23 20 24 22 19 19 14 11 9 11 6 6 9 4 6 3 2 2 2 3 6 5 2 6 3 2 2 2 1 3 5 5 1 0 3 2 4 6 9 8
32 28 26 25 21 22 22 19 16 18 13 12 12 9 9 8 6 3 7 6 5 2 5 5 7 2 4 3 1 0 2 2 3 2 3 4 1 2 2 1 4 5 7
35 34 30 28 26 25 23 24 19 14 16 11 12 9 11 10 6 8 5 7 10 6 6 7 10 7 8 4 3 3 4 3 3 2 2 1 2 2 1 3 2 2 3
37 35 31 32 29 26 27 27 23 19 19 16 12 10 11 12 9 6 4 7 8 8 7 8 5 3 2 7 3 5 5 6 6 5 4 6 4 1 2 1 1 2 4
38 36 33 35 31 26 24 28 26 26 21 20 16 17 17 12 11 10 8 8 10 8 8 4 4 2 1 4 7 7 6 3 6 3 7 4 3 5 6 3 2 2 4
39 37 37 38 33 28 27 25 31 30 28 22 18 15 15 15 13 12 10 9 9 6 3 5 3 6 7 3 4 4 6 3 7 4 8 5 2 3 1 2 2 2 2
42 40 38 37 33 30 28 25 22 19 25 26 20 18 17 16 14 12 10 9 11 11 8 7 7 3 9 5 2 7 8 8 7 11 8 1 1 2 3 5 4 7 7
45 44 41 37 34 32 30 26 24 19 22 24 22 20 16 14 13 13 11 11 13 15 13 10 6 9 10 6 6 5 5 5 11 11 6 4 3 6 4 4 6 6 4
48 44 42 39 37 36 33 30 30 29 27 26 25 22 18 17 16 14 13 14 14 16 14 10 7 12 12 11 10 6 6 8 7 9 11 7 4 1 2 3 3 9 7
53 50 47 44 43 40 36 35 34 33 27 21 25 21 19 20 20 18 15 17 19 16 13 11 8 11 15 13 11 12 14 11 8 11 12 11 7 7 6 4 6 3 6
57 54 51 49 46 43 40 36 37 36 30 26 28 25 21 21 21 20 16 16 13 15 13 12 10 10 15 14 13 13 11 15 12 9 8 7 4 7 12 9 9 8 6

GFSSE_850_spd_027.txt.gz
Wind_Speed
28 38 33 30 26 26 26 27 29 30 29 26 22 19 18 17 16 14 13 13 13 13 14 13 13 11 11 11 9 10 13 13 13 10 8 9 9 10 9 9 10 9 10
37 34 30 27 29 27 27 30 30 29 26 22 21 19 18 17 14 12 13 13 13 13 13 13 13 12 10 10 10 11 10 7 10 13 9 10 11 9 8 8 9 10 11
32 30 30 28 29 28 28 29 28 25 23 21 19 18 17 15 13 12 12 13 13 13 12 13 12 12 10 8 10 12 10 9 10 12 10 10 9 11 8 9 12 10 13
31 29 30 30 29 28 27 26 25 23 21 20 18 16 14 13 12 11 11 13 13 13 13 12 13 11 9 8 8 8 8 10 11 11 12 9 10 9 9 9 11 11 11
28 29 31 30 28 27 26 24 23 22 20 18 17 15 14 13 12 11 12 13 14 14 14 14 13 12 9 8 8 6 6 10 11 11 11 11 9 10 10 11 13 12 11
29 30 29 28 27 26 25 23 22 21 19 17 15 14 14 12 12 13 12 13 14 14 14 14 13 13 10 9 7 6 6 6 7 8 9 10 10 10 10 12 12 12 12
30 28 27 26 26 26 24 22 20 19 17 15 14 13 13 13 15 14 13 13 12 13 13 13 12 11 11 9 6 8 6 5 5 4 7 8 10 9 11 11 11 11 12
28 27 26 24 25 25 23 21 19 17 14 13 13 13 12 12 13 13 13 12 11 12 12 12 11 10 9 10 10 9 8 7 10 2 4 7 9 10 9 10 9 10 11
26 27 26 25 24 24 23 20 18 16 13 13 13 12 12 12 11 11 11 11 10 11 14 13 10 9 8 10 12 8 7 8 6 3 3 6 7 8 9 9 10 8 10
26 26 26 25 24 24 23 20 18 15 13 14 12 11 10 10 10 8 10 10 11 12 11 9 8 7 8 8 12 10 7 5 5 2 3 5 6 7 7 8 7 8 9
25 25 25 25 24 23 22 21 18 16 13 13 11 10 8 6 6 8 9 10 10 10 9 6 7 6 6 7 10 10 10 12 10 8 6 4 5 5 6 8 8 8 8
27 27 25 25 24 23 23 21 19 16 14 13 10 11 7 6 5 7 6 7 8 9 5 4 3 4 6 7 8 6 8 9 9 7 8 5 3 4 5 7 8 9 9
25 25 26 26 25 24 22 21 19 17 15 12 11 10 7 5 2 6 7 8 7 7 5 2 5 2 4 4 4 7 6 6 6 6 5 6 3 4 4 6 8 9 8
28 26 26 26 25 23 21 21 18 17 15 13 11 10 7 6 6 5 6 5 6 4 3 4 4 3 5 3 3 3 8 3 4 5 5 5 4 1 6 5 7 9 10
27 28 28 27 26 23 23 20 19 16 14 14 12 9 9 6 5 3 3 3 3 1 1 1 2 4 1 4 3 0 4 5 1 5 6 2 3 3 3 6 8 8 9
27 27 28 28 26 24 24 21 18 15 15 14 13 9 7 7 5 4 3 3 4 2 2 3 5 3 5 1 2 5 5 2 1 3 1 1 1 4 2 4 7 10 8
31 27 27 28 25 27 25 21 21 18 16 12 13 12 9 8 7 4 5 6 6 3 5 3 4 2 5 5 4 4 4 1 3 3 4 3 1 2 4 1 3 6 9
33 32 29 28 25 24 28 24 23 18 16 15 14 15 13 10 8 6 5 7 10 9 5 5 9 9 10 7 4 6 5 7 3 2 4 3 3 1 1 3 2 2 4
35 34 33 31 27 23 29 25 23 20 17 18 17 16 12 11 11 7 6 5 8 9 8 8 6 4 5 8 9 7 5 2 5 5 5 5 4 2 2 1 0 1 3
38 35 33 32 29 25 26 27 26 23 19 21 18 14 12 10 12 9 8 8 9 10 7 7 5 5 5 2 6 5 6 3 7 5 5 4 3 1 5 1 2 2 5
42 39 36 36 33 32 31 30 31 29 25 23 20 17 15 14 14 12 10 10 10 9 7 6 7 6 6 6 8 7 7 5 6 6 5 2 1 1 1 3 1 0 3
44 43 41 40 36 34 31 29 31 29 29 28 25 21 16 15 15 14 12 12 10 12 10 8 8 9 12 10 11 6 10 8 7 11 7 2 5 5 3 4 3 4 4
49 47 43 42 41 38 34 29 28 25 28 32 32 29 22 18 16 15 14 14 12 13 15 11 11 6 12 12 12 10 7 7 13 13 10 6 5 6 6 6 8 7 5
46 45 45 43 42 42 39 34 32 30 29 27 27 29 23 18 19 15 14 16 13 13 15 14 12 8 13 11 9 11 8 8 10 9 12 11 6 4 3 3 5 7 8
47 46 45 45 44 43 42 38 35 34 30 25 25 26 24 22 21 20 19 17 16 15 15 15 12 9 14 11 10 9 9 8 10 7 13 13 9 8 6 3 2 1 3
52 50 48 48 47 45 43 41 38 35 32 29 27 27 27 25 23 23 22 19 16 17 17 15 11 10 13 14 12 11 8 9 8 9 9 13 12 10 11 10 8 6 5

GFSSE_850_spd_030.txt.gz
Wind_Speed
33 31 30 26 26 27 28 28 26 26 26 23 19 17 16 16 14 12 12 11 12 12 12 11 9 9 9 9 7 10 11 12 9 7 7 8 10 7 9 10 10 12 11
37 31 27 26 25 26 26 26 26 27 24 20 18 17 15 14 13 12 11 11 12 12 12 11 10 9 10 8 8 9 8 7 10 9 10 11 11 10 9 9 10 12 14
38 31 24 26 26 28 27 28 27 24 21 19 18 16 14 12 12 12 12 12 12 12 10 10 9 9 9 9 8 6 7 8 9 10 11 10 10 10 10 11 12 14 12
31 30 26 27 27 29 29 27 24 22 20 18 16 15 13 11 12 13 12 12 12 12 12 10 9 8 9 8 7 5 7 8 8 10 10 11 11 8 11 12 12 13 12
30 28 28 28 28 28 27 24 22 20 18 16 16 14 12 12 12 13 13 13 12 12 12 11 9 8 8 7 7 5 6 7 7 9 9 10 9 11 11 11 12 12 10
29 28 30 29 28 27 25 23 21 19 18 16 15 13 12 12 13 13 13 13 12 11 11 10 9 9 8 7 7 7 7 5 5 8 9 11 12 10 12 12 12 11 11
30 29 28 28 27 26 23 22 20 19 16 15 14 13 13 14 13 13 13 12 11 11 10 10 10 11 11 9 7 7 9 9 5 5 8 10 11 10 11 11 10 11 10
31 30 28 27 26 24 22 21 19 17 15 14 13 12 13 13 12 11 11 11 11 10 9 10 10 11 14 14 10 9 9 9 6 5 6 9 10 10 10 8 9 10 11
29 28 27 26 26 23 22 20 18 15 13 13 12 12 11 11 11 9 8 9 10 11 10 10 9 10 11 11 8 8 6 9 6 5 5 7 10 8 8 6 9 10 9
27 27 26 25 25 24 22 20 17 15 13 13 11 11 10 10 8 7 7 9 10 10 8 8 8 8 10 12 11 9 8 7 5 6 3 5 8 7 7 7 7 9 9
27 26 25 25 25 24 22 20 17 15 13 12 11 10 9 7 7 6 7 8 8 8 6 6 7 8 10 9 10 7 10 10 10 7 3 4 4 6 6 7 8 7 7
30 28 25 25 24 24 23 21 18 15 13 13 10 8 7 7 6 5 5 6 8 5 4 3 3 5 7 8 7 6 6 7 7 8 7 2 3 4 5 7 8 7 6
29 28 27 25 24 24 23 21 18 16 14 13 11 9 8 6 5 5 6 6 4 5 5 3 4 5 4 5 5 7 6 4 7 7 6 5 2 5 4 5 6 8 8
31 28 27 26 25 24 22 20 18 16 16 13 11 10 6 6 9 7 7 5 5 4 2 3 4 5 6 3 4 4 9 1 6 7 5 4 3 2 6 2 4 6 7
29 28 28 27 26 23 22 20 19 17 16 14 12 10 8 7 6 7 5 5 3 1 1 3 3 5 2 6 4 3 3 6 1 2 3 2 4 4 3 6 5 4 6
29 28 27 27 25 24 22 21 19 18 16 15 13 9 9 7 5 5 4 4 4 3 2 3 5 6 3 1 4 4 3 2 1 3 2 2 2 5 2 3 5 6 4
29 27 28 27 26 25 23 21 21 19 17 17 14 10 8 9 7 4 4 6 6 5 4 5 6 4 4 6 4 4 3 3 3 2 2 2 2 4 4 2 2 4 7
29 28 27 28 28 26 25 23 22 19 19 16 15 13 12 10 9 7 4 4 7 7 5 7 7 9 7 8 4 3 2 6 1 4 4 4 2 1 4 5 3 1 2
32 29 28 28 29 27 26 25 23 23 20 16 16 14 15 13 10 9 6 6 6 6 7 7 9 5 2 4 7 8 7 4 8 4 5 3 3 2 1 3 3 2 2
34 31 29 27 27 25 25 27 26 25 22 18 19 18 16 13 11 10 8 8 7 8 8 7 6 4 4 8 2 5 4 1 5 3 3 2 2 3 2 3 3 3 4
35 35 34 32 30 28 27 31 30 29 25 21 20 20 16 14 12 11 11 9 8 9 9 7 5 6 6 4 4 5 6 5 4 4 5 3 3 4 3 3 2 3 3
38 37 36 35 34 32 30 29 31 30 28 25 22 22 19 14 13 12 13 10 10 10 10 8 6 8 10 8 7 7 7 6 7 7 4 3 4 7 6 5 3 2 2
44 43 41 38 37 36 34 32 32 31 30 31 28 26 22 17 15 13 14 13 13 12 11 10 9 8 6 10 11 7 6 5 10 9 8 4 3 7 8 8 9 8 7
46 43 43 42 41 38 37 36 35 33 31 30 31 29 26 24 18 15 13 15 14 13 12 11 11 9 9 10 11 13 8 5 8 7 11 9 7 5 5 4 5 7 9
48 46 44 43 44 41 40 39 37 37 31 27 24 26 27 27 23 20 19 16 16 15 13 12 13 11 11 12 11 8 6 6 10 7 12 14 11 9 6 4 3 2 3
48 48 46 47 46 46 45 43 42 39 36 30 27 25 24 25 24 22 20 19 19 18 15 14 13 13 10 14 12 10 9 9 9 10 10 14 15 11 10 9 7 6 5

GFSSE_850_spd_033.txt.gz
Wind_Speed
28 30 31 27 28 28 27 24 23 24 23 21 18 15 14 14 12 9 9 9 9 9 8 6 8 8 8 7 9 9 10 9 6 7 8 9 7 9 9 10 13 10 11
34 29 29 28 29 28 26 24 24 24 22 18 16 15 14 12 11 10 9 9 9 9 8 8 8 8 8 7 8 7 5 8 8 11 9 11 10 10 8 9 15 12 12
33 27 28 26 27 27 26 26 26 24 20 16 16 15 12 11 10 9 9 9 10 8 8 8 8 8 7 8 7 5 6 8 7 10 10 9 8 9 10 11 13 14 13
30 27 26 25 26 27 28 27 24 21 18 17 15 13 12 12 11 10 10 10 10 9 9 7 8 8 7 6 6 5 6 7 8 9 9 10 9 10 12 13 14 14 12
29 27 27 26 28 30 28 24 22 20 18 16 14 12 11 11 11 11 11 11 9 9 8 9 8 8 7 5 5 5 4 6 8 6 8 11 9 9 12 13 13 13 12
29 29 27 28 29 28 25 22 20 19 17 15 13 11 11 12 12 11 11 11 8 9 10 11 10 10 9 9 7 8 7 4 7 6 7 10 10 9 13 12 12 10 11
25 28 27 27 28 26 23 21 20 18 16 15 12 11 12 12 12 11 10 10 8 9 11 13 14 14 13 10 9 8 7 6 5 6 7 10 8 11 11 11 11 12 12
27 25 25 27 26 24 22 20 19 16 15 13 12 12 12 11 11 11 10 9 8 10 11 13 14 14 14 12 10 8 8 7 6 6 7 7 9 9 9 8 10 10 10
25 25 24 26 25 23 21 20 17 15 14 13 12 11 10 10 9 9 9 8 9 11 10 11 11 11 12 12 8 8 8 8 7 6 7 7 9 8 7 6 7 9 9
25 26 26 26 24 23 21 19 16 13 13 12 11 9 9 8 8 8 8 9 9 8 9 9 10 10 10 11 10 10 9 8 8 6 6 6 7 6 6 7 7 7 7
25 28 28 27 25 24 21 19 16 13 12 11 10 9 8 6 7 7 8 8 7 6 6 6 9 12 9 8 8 7 10 10 11 8 4 4 6 6 6 6 6 7 6
27 28 28 28 27 25 22 19 17 14 13 11 10 8 7 6 6 6 6 5 5 5 4 5 6 7 9 7 7 8 7 7 8 8 5 3 4 5 8 7 7 5 6
29 28 28 27 26 25 24 21 18 16 13 11 10 8 7 6 4 4 5 6 4 6 6 5 6 7 6 5 6 7 7 5 7 7 6 4 2 4 5 8 8 6 5
30 30 28 27 26 26 24 22 19 17 15 13 11 9 6 4 6 4 5 3 5 3 2 3 4 5 6 4 4 5 7 3 4 6 4 4 3 3 6 4 6 6 6
31 31 29 28 27 26 24 22 20 18 16 14 12 10 7 7 6 5 4 4 4 1 1 4 5 5 4 6 3 4 4 4 1 3 4 3 4 2 3 6 4 4 6
32 31 29 28 26 25 24 22 20 19 17 15 13 10 9 7 6 4 4 4 3 3 3 2 4 6 1 3 3 4 3 1 2 4 2 2 3 6 3 2 5 4 5
33 31 30 28 26 25 23 22 21 20 18 17 14 11 9 8 5 4 3 5 5 6 5 4 5 5 6 5 1 5 3 2 2 3 1 3 3 5 6 3 1 4 6
32 32 29 28 27 26 24 22 22 21 19 18 17 13 9 7 6 6 4 3 5 7 6 5 6 8 6 5 3 0 1 2 2 6 5 5 3 2 4 6 5 3 1
32 30 30 29 28 27 25 23 23 22 21 19 19 16 12 12 8 8 6 5 5 6 5 7 8 6 2 3 3 4 4 5 6 5 4 3 3 3 2 4 5 4 2
33 30 28 28 29 27 26 25 25 25 23 23 20 17 15 13 13 12 10 7 7 6 6 7 8 4 3 6 2 4 4 4 7 5 3 3 3 3 1 2 3 1 3
35 34 32 30 29 30 31 30 30 29 28 26 21 19 16 14 13 11 11 9 7 6 8 7 6 3 4 4 2 4 4 4 4 5 5 5 4 4 3 2 1 1 3
35 36 36 33 30 31 32 30 32 30 31 27 23 19 19 17 14 14 12 11 9 8 9 7 6 5 7 5 4 4 3 2 4 4 2 3 4 5 5 5 2 2 0
37 38 38 36 34 33 32 30 30 31 31 30 27 23 22 20 16 14 13 14 11 10 10 8 8 6 7 5 6 3 3 3 5 7 4 3 4 6 7 8 9 8 6
41 39 37 37 37 35 34 34 32 33 33 31 30 27 24 21 18 15 14 14 14 12 11 10 9 7 6 6 6 7 7 4 5 5 8 7 6 5 5 5 6 7 7
40 42 40 38 38 38 37 37 35 35 32 28 28 26 27 25 23 22 17 16 15 13 12 11 10 8 7 8 8 4 6 9 9 6 6 8 11 9 6 4 3 3 3
42 44 43 42 41 41 41 39 39 37 35 32 30 26 25 27 27 26 24 20 18 17 14 12 12 11 9 9 10 8 7 5 6 7 7 9 10 10 11 9 9 7 7

GFSSE_850_spd_036.txt.gz
Wind_Speed
37 39 37 28 24 25 22 20 21 20 19 18 15 14 11 10 11 10 10 11 10 8 7 7 7 7 8 8 10 10 9 7 6 7 7 6 7 8 9 13 13 7 10
41 42 31 23 25 24 20 21 21 21 18 15 14 13 11 10 10 9 10 10 8 9 8 7 8 8 8 9 8 7 8 9 9 8 9 8 8 9 11 15 15 10 11
36 31 23 24 24 23 21 22 22 20 17 14 13 12 11 10 8 8 10 9 8 9 9 8 7 7 9 8 6 6 7 9 8 9 12 9 5 8 11 14 13 12 11
33 24 24 27 25 23 23 23 21 18 15 14 12 11 10 9 9 10 11 10 8 8 8 8 8 7 7 7 7 6 7 9 8 12 9 8 6 9 10 13 12 12 11
24 22 24 26 25 24 24 22 19 16 15 14 12 11 10 9 9 11 12 9 8 8 9 9 9 8 7 6 6 4 5 8 8 10 6 11 5 8 10 11 11 10 12
23 22 27 26 26 26 24 20 18 16 15 13 11 11 11 10 10 11 10 8 10 12 12 13 12 11 10 7 7 7 4 5 12 6 7 7 9 8 10 11 8 8 9
25 23 25 27 29 26 22 19 17 16 14 12 10 11 11 10 9 10 10 9 11 13 14 16 16 14 10 8 9 8 8 6 6 7 8 4 8 11 11 10 9 10 10
25 24 24 29 27 23 20 18 17 16 14 11 11 11 11 10 9 9 9 9 11 12 13 13 13 13 11 10 8 7 8 10 7 7 9 5 8 10 10 10 9 9 9
26 25 24 23 25 22 19 18 16 15 13 11 11 11 10 9 9 8 8 10 11 12 12 12 11 12 13 11 9 8 9 9 7 6 6 5 8 9 7 8 9 9 8
26 25 24 22 20 18 19 18 15 13 12 11 10 9 8 8 8 8 9 8 9 9 9 10 9 9 11 10 12 12 12 13 6 6 7 5 7 7 5 7 7 8 8
26 25 24 22 20 18 16 17 15 13 12 11 9 9 7 5 4 5 5 6 7 7 6 9 11 10 9 10 9 10 13 6 7 5 4 4 5 6 5 6 6 6 7
28 26 24 22 20 18 15 15 12 10 8 8 7 6 6 5 4 7 3 6 6 6 6 7 8 9 8 6 6 9 5 4 6 5 1 2 4 5 7 5 4 4 5
28 26 24 22 20 18 16 14 11 10 9 8 9 7 6 4 2 3 2 3 3 5 2 4 4 4 6 6 6 4 3 4 4 3 3 4 3 5 7 5 4 4 6
28 26 24 22 21 20 16 14 12 11 10 8 7 8 6 3 2 4 4 2 3 1 2 2 2 4 4 5 5 5 5 3 3 4 3 5 4 4 5 6 5 5 5
27 26 25 23 22 21 19 15 13 12 11 9 8 8 6 4 4 4 3 3 2 1 1 2 5 4 5 5 3 5 5 4 4 3 0 4 6 3 4 6 6 6 6
27 26 24 23 23 22 20 18 15 13 11 10 9 8 9 6 5 6 3 2 1 2 0 1 1 2 2 2 2 6 2 2 3 3 2 2 5 6 3 3 6 5 6
27 26 25 24 23 24 23 22 17 13 12 11 10 11 11 8 6 4 2 2 3 4 2 0 3 5 3 1 3 6 5 5 4 2 4 3 3 7 6 4 3 5 6
26 27 25 23 23 23 21 22 17 15 14 13 11 10 11 9 6 3 1 1 3 2 2 1 1 3 4 1 3 3 1 1 5 6 5 4 4 1 5 5 5 4 4
27 26 26 25 24 23 23 20 20 17 17 14 14 12 12 10 7 5 4 4 3 5 1 1 2 3 2 2 0 1 1 1 4 6 6 5 3 4 3 3 4 3 3
27 26 26 26 25 25 21 23 18 18 18 16 15 14 16 13 11 9 7 7 2 1 3 1 3 2 2 2 1 4 4 5 5 5 5 4 1 4 5 2 3 2 2
28 28 28 28 28 27 26 23 22 21 19 18 17 18 17 14 12 11 9 8 5 1 1 1 2 2 2 3 6 6 4 6 5 5 5 5 5 4 2 2 2 3 2
32 30 29 30 30 32 26 25 22 21 19 18 18 17 18 16 14 12 11 9 6 4 3 1 0 1 1 2 4 4 7 7 5 4 3 3 5 4 3 3 2 3 3
34 34 33 33 32 32 27 24 22 19 20 19 20 18 17 18 17 13 13 10 10 5 4 4 2 1 1 2 7 2 3 5 7 5 4 3 3 3 3 4 5 4 5
35 32 33 35 35 32 31 25 28 25 23 21 21 18 17 20 18 16 13 11 12 7 8 5 4 4 2 3 4 6 5 2 5 7 5 6 5 3 3 2 2 3 4
33 32 31 33 36 34 34 31 29 26 22 18 20 20 22 19 20 17 16 14 13 9 10 9 7 5 5 6 4 4 5 6 6 5 6 7 7 8 6 5 3 2 3
34 33 32 34 38 38 37 36 36 30 26 22 21 20 19 19 19 23 19 20 17 14 12 9 9 9 8 8 8 7 5 5 6 7 7 6 7 8 9 8 8 7 7

GFSSE_850_spd_042.txt.gz
Wind_Speed
24 23 23 22 24 24 23 20 18 18 16 16 15 14 14 14 15 15 15 14 12 11 10 9 9 8 9 10 10 11 8 8 8 8 7 7 10 12 14 13 14 2 8
27 24 24 23 22 21 20 18 17 17 15 15 14 14 14 15 14 15 14 13 13 12 11 10 10 9 8 10 12 14 13 14 12 12 13 10 10 14 13 10 9 6 8
25 24 25 23 22 21 19 18 16 15 14 14 13 13 13 14 14 13 13 13 14 13 12 11 10 11 10 10 12 15 15 15 14 11 14 11 8 13 10 11 9 7 11
24 22 25 22 19 20 18 18 16 13 13 13 12 12 13 13 13 13 14 13 13 13 12 11 10 9 9 9 10 14 15 14 13 13 6 12 4 10 8 10 10 11 11
23 18 24 21 20 19 18 16 14 13 12 11 11 12 12 13 13 13 14 14 13 12 13 12 10 8 9 10 9 10 14 15 14 12 14 12 5 9 10 11 11 11 11
24 18 22 20 20 19 18 15 13 12 10 10 10 11 11 11 12 13 14 15 15 14 14 12 11 10 8 9 10 11 17 18 10 14 7 9 5 10 11 11 9 9 7
26 19 23 21 20 19 17 14 13 12 9 9 9 10 10 11 12 13 14 16 16 16 16 13 12 11 10 9 10 11 15 15 11 14 3 1 6 9 10 9 9 9 9
22 19 23 21 20 18 16 14 12 11 9 9 9 9 9 10 11 11 13 14 14 14 13 14 13 11 11 8 9 12 14 14 10 9 3 6 9 10 11 11 11 11 11
24 22 21 21 20 17 15 13 12 10 9 10 9 9 10 11 11 11 12 12 12 12 12 13 13 12 13 13 13 12 15 16 11 4 7 7 7 9 10 10 10 10 10
26 21 19 19 20 17 15 13 12 10 9 10 10 10 13 13 12 10 11 10 10 10 11 10 10 11 10 14 16 15 18 13 10 7 1 2 3 6 9 9 9 9 10
30 23 21 19 13 13 14 13 12 10 9 9 9 6 8 8 6 6 6 8 7 8 9 7 9 11 11 12 12 11 12 11 10 8 5 2 3 5 8 8 8 9 9
26 25 23 20 16 12 11 12 11 9 8 7 5 6 8 9 8 6 4 8 6 6 4 6 6 9 10 9 10 11 8 7 8 4 3 2 4 6 7 8 8 8 8
25 27 25 22 18 15 16 10 6 6 8 2 8 12 5 9 8 10 4 8 6 9 3 9 6 7 8 3 5 5 8 10 7 3 6 1 3 5 7 7 6 6 7
29 29 27 26 20 17 18 9 7 7 10 8 5 6 5 6 2 7 6 9 8 7 5 8 8 9 10 6 10 3 6 3 8 4 7 4 2 5 7 6 6 7 6
28 28 28 26 23 19 15 9 13 10 10 10 9 5 4 2 6 4 7 7 6 5 7 4 5 4 4 4 6 6 4 7 5 2 7 5 4 5 5 6 6 6 6
31 28 29 25 23 22 19 16 11 14 9 7 5 8 5 5 5 3 6 7 4 3 7 6 3 3 2 6 3 6 6 4 3 3 3 8 9 4 3 5 5 5 6
31 29 28 25 22 27 24 21 16 9 8 8 5 11 11 5 0 2 3 3 2 5 6 4 4 9 8 4 2 9 7 3 3 3 0 5 8 9 6 0 4 3 5
30 30 28 23 22 25 26 24 23 13 10 9 9 13 10 9 5 3 3 5 5 1 4 4 3 2 5 4 10 4 7 5 3 4 3 2 5 8 9 8 4 0 3
30 33 30 26 26 22 23 22 21 14 14 12 10 11 10 6 6 5 2 2 5 6 5 4 2 3 5 4 4 6 4 3 7 8 5 2 1 7 10 11 8 8 6
31 33 34 29 24 25 22 23 17 17 15 14 12 11 14 10 8 6 3 0 2 1 5 4 3 4 3 5 9 7 7 8 6 3 6 4 2 5 6 4 6 6 7
33 32 33 34 31 29 26 25 22 18 17 16 15 13 14 15 11 10 8 7 5 2 4 6 4 7 3 8 7 6 9 9 3 6 7 7 1 4 7 4 7 6 5
38 36 36 37 34 31 30 26 23 20 18 17 17 16 20 19 15 11 8 8 6 5 3 3 4 6 2 6 4 9 8 8 6 8 9 5 4 9 8 2 6 3 2
38 41 39 38 38 37 32 27 22 20 20 21 19 18 20 20 13 13 11 8 9 6 5 4 9 6 5 8 5 8 2 3 9 3 9 8 8 6 1 4 4 6 2
40 41 41 39 40 39 37 29 30 30 27 25 22 20 20 16 15 16 13 11 12 10 8 4 6 7 4 2 8 8 4 3 6 9 6 9 6 5 3 4 2 4 6
41 42 42 40 38 39 38 32 30 29 28 23 22 20 22 22 19 16 16 13 14 13 9 7 9 9 7 7 3 5 6 5 2 4 10 12 6 8 6 8 8 3 3
39 40 41 40 38 39 37 39 31 32 29 26 24 24 23 22 21 17 19 18 15 14 13 14 15 10 12 11 9 6 5 9 8 8 8 16 11 12 7 4 9 6 6

GFSSE_850_spd_045.txt.gz
Wind_Speed
24 24 25 25 25 24 21 19 19 18 17 18 17 18 19 18 18 17 16 14 13 13 13 12 12 13 11 11 11 12 11 10 10 9 8 7 10 13 14 15 8 11 12
28 26 26 26 25 24 21 19 19 18 17 16 17 17 17 18 17 17 16 15 15 14 13 12 12 11 12 14 15 16 15 16 16 17 14 11 13 13 14 11 11 11 11
29 27 27 25 24 21 20 19 18 17 16 15 16 16 17 17 17 16 16 16 16 14 13 13 14 13 14 16 16 17 19 17 16 18 16 12 13 12 12 12 11 11 13
30 29 27 24 22 20 20 19 18 16 15 15 14 15 17 17 16 16 16 14 15 14 13 12 11 12 12 14 17 18 17 15 16 9 13 14 9 10 12 13 13 13 13
29 28 27 24 22 21 19 17 16 15 14 13 14 14 16 16 15 15 16 15 14 14 13 12 11 12 14 14 15 17 21 15 16 15 14 11 9 10 13 14 12 14 12
25 27 24 24 22 20 19 16 15 14 13 12 14 14 14 14 14 16 16 16 16 16 15 13 12 11 13 14 16 18 16 16 15 17 12 10 10 11 10 12 12 10 11
25 25 23 23 21 19 17 15 14 13 12 13 14 13 13 13 14 16 16 17 17 16 14 14 14 13 11 13 15 18 16 16 11 13 5 3 9 11 11 10 10 10 12
24 24 23 22 21 19 16 15 13 11 12 13 13 13 13 12 13 14 14 14 15 15 16 15 14 13 12 14 17 17 14 12 11 9 9 10 11 11 12 13 12 12 12
22 25 24 23 21 18 16 14 12 11 13 14 13 14 14 13 13 12 12 12 13 13 13 13 14 17 16 15 17 18 15 14 9 8 9 8 9 10 12 12 12 12 12
20 25 24 23 21 18 16 14 12 12 14 14 14 15 16 16 13 11 10 10 10 11 12 12 10 13 14 17 18 16 13 12 8 6 6 7 6 8 11 12 11 12 11
22 22 24 23 20 17 15 14 13 13 13 13 15 12 11 13 11 9 6 7 7 8 11 13 12 12 12 13 14 17 13 9 13 8 5 5 5 7 9 10 11 12 11
25 20 23 23 19 17 15 13 13 13 12 11 10 9 6 7 8 6 2 5 5 8 10 8 9 8 10 10 8 10 12 9 5 5 6 5 5 7 9 10 10 11 11
27 22 23 22 18 16 16 13 13 14 12 9 5 11 8 8 7 6 4 5 5 8 8 12 11 9 8 4 3 3 3 7 3 5 9 5 4 6 8 9 9 9 9
31 25 22 19 17 18 15 10 14 11 10 9 5 8 7 9 9 5 6 4 6 8 9 11 11 8 8 9 10 4 6 9 6 7 11 7 3 5 7 7 8 8 8
35 31 27 23 19 19 16 8 12 9 5 7 3 2 6 5 7 3 7 5 8 7 8 8 6 2 4 5 9 11 11 11 5 13 10 9 5 4 5 5 7 7 8
34 37 34 27 22 20 17 12 10 9 9 9 4 4 5 3 5 5 4 2 7 6 7 3 2 4 4 6 8 9 11 7 7 10 9 12 11 5 3 4 5 5 6
36 39 38 31 25 26 21 21 16 19 11 11 6 8 6 5 6 4 5 3 5 9 7 3 5 6 6 5 10 9 5 3 6 8 7 11 13 10 6 4 3 3 5
35 39 36 32 27 26 28 24 21 19 15 11 10 9 6 8 9 9 7 4 6 7 6 3 5 5 4 9 10 7 8 6 6 5 6 6 10 11 10 9 6 3 3
35 38 35 32 27 23 26 27 25 21 20 15 10 11 8 4 9 11 5 5 9 7 8 5 1 2 4 10 6 8 7 6 7 8 5 6 7 10 10 8 9 6 3
41 39 33 30 25 22 18 30 27 23 22 18 12 12 11 9 6 8 7 9 9 6 6 4 4 7 6 5 9 7 7 12 10 7 7 3 6 7 7 5 4 4 4
44 41 37 32 28 26 23 25 28 30 25 22 18 13 14 12 9 11 7 8 5 5 6 8 6 10 8 12 11 8 8 9 7 8 7 4 8 10 4 3 5 2 4
45 43 41 38 34 29 26 23 24 22 23 21 22 14 14 14 13 10 9 7 7 8 8 6 11 8 7 11 10 10 9 7 3 11 10 7 11 7 4 1 4 3 1
44 44 43 41 39 36 31 26 22 22 18 21 18 22 16 18 17 13 12 10 12 12 10 8 12 9 10 10 13 9 7 4 12 7 9 9 13 6 3 3 5 2 3
45 44 42 41 39 37 36 32 29 29 30 26 23 19 22 22 19 16 14 12 14 14 10 8 14 11 8 14 12 10 7 9 11 8 11 8 7 8 5 2 2 2 7
45 47 44 41 39 39 39 36 32 30 29 26 23 23 21 20 17 13 14 13 13 15 11 10 12 12 10 9 11 12 8 8 7 7 13 16 12 9 7 6 6 5 4
48 47 47 44 41 39 42 40 37 34 31 29 29 23 22 21 20 19 15 15 13 14 15 14 10 11 12 13 11 11 9 14 11 9 10 14 13 12 10 10 8 8 7

GFSSE_850_spd_048.txt.gz
Wind_Speed
26 26 27 27 24 23 22 21 21 20 20 20 19 19 19 19 18 17 16 15 14 14 15 13 14 10 10 9 9 10 11 12 11 10 10 9 9 11 13 12 13 14 14
30 29 27 25 24 22 22 20 20 19 19 19 18 18 19 19 18 17 17 16 15 15 15 14 13 13 12 15 15 15 15 14 14 13 12 12 12 12 11 13 12 13 13
31 29 27 26 24 23 21 19 19 19 18 18 17 18 19 18 18 18 16 16 16 16 15 15 14 15 14 17 19 19 18 17 16 14 14 13 12 11 10 11 13 13 13
33 32 28 26 23 23 21 19 18 17 17 17 17 18 17 18 17 16 15 15 15 14 14 14 13 13 15 19 18 19 20 14 17 17 14 13 11 13 13 14 14 14 13
33 31 28 25 23 22 21 18 17 16 16 16 17 17 17 17 17 16 16 16 15 14 13 13 15 15 15 17 17 17 18 17 17 16 15 13 10 12 13 13 13 13 13
32 29 27 25 23 22 20 18 16 16 15 15 16 16 16 17 18 18 18 18 17 16 15 14 13 15 15 18 16 15 17 16 16 15 13 12 11 12 12 12 12 12 12
31 29 27 24 22 20 19 17 16 15 15 15 16 16 16 17 18 19 19 18 16 16 15 14 13 13 15 17 16 14 15 16 14 11 8 10 12 12 11 12 11 13 13
30 28 26 23 21 20 18 17 15 14 15 15 16 16 16 17 17 16 16 16 16 15 15 15 14 14 15 16 14 12 16 13 12 11 11 10 10 10 12 12 13 13 13
27 27 27 24 21 19 18 16 14 14 16 16 16 16 16 17 16 14 13 14 14 14 14 15 16 15 16 16 12 12 15 13 11 11 11 10 10 11 12 12 13 13 13
26 26 26 24 21 19 17 15 14 16 17 16 16 17 18 17 16 13 11 11 13 11 11 13 12 15 17 16 14 11 10 10 11 10 7 9 9 10 12 12 12 12 12
25 25 25 23 21 19 17 15 15 16 16 16 16 16 15 16 15 12 10 10 10 9 9 12 11 11 14 14 11 10 12 11 9 5 6 8 8 9 10 12 12 12 11
28 26 25 23 21 19 17 16 16 15 15 14 12 12 11 11 12 11 9 8 10 9 10 7 11 9 9 11 10 6 8 8 7 6 5 8 7 8 9 11 12 12 11
27 27 26 24 20 19 18 17 16 15 15 12 9 8 10 9 8 11 9 5 10 10 11 10 9 9 7 4 6 5 5 5 6 6 6 8 7 7 8 9 10 11 10
27 25 26 24 21 19 18 16 16 16 12 14 11 9 9 8 7 9 12 7 10 9 10 11 11 10 10 7 8 6 6 5 6 6 7 7 6 6 7 7 8 9 10
29 25 28 24 22 23 19 18 17 15 11 11 8 8 8 10 9 10 11 10 9 8 10 8 7 5 8 8 9 9 9 10 10 11 8 6 7 6 5 6 6 7 7
30 25 28 25 23 25 18 20 15 11 9 7 8 7 7 5 8 10 9 9 6 8 8 6 3 7 6 8 10 11 13 11 9 11 11 9 7 6 4 4 5 5 5
32 27 30 27 23 23 22 20 14 7 11 8 10 5 4 2 4 5 5 6 9 10 6 7 6 6 8 7 10 11 8 8 9 8 9 9 10 7 4 4 4 4 4
37 34 32 29 27 25 23 22 16 13 13 11 7 6 1 5 5 4 4 5 8 9 8 6 6 5 6 12 8 9 6 6 6 5 6 7 8 10 7 5 4 3 3
41 37 37 35 30 30 26 23 21 23 15 12 10 8 5 3 6 4 3 7 8 9 8 7 5 4 8 11 7 11 6 6 7 6 6 7 7 9 8 6 5 3 1
41 36 41 40 34 30 27 23 24 25 22 17 11 13 9 6 4 7 6 7 9 8 9 6 7 8 6 10 9 10 7 10 7 5 5 5 5 6 6 5 4 4 2
40 40 41 44 40 33 33 31 30 28 29 24 18 15 14 11 9 6 9 10 10 7 8 6 8 10 9 8 13 13 11 9 6 5 6 6 8 5 3 4 5 2 3
47 45 43 45 41 36 30 27 34 33 30 28 23 16 14 14 13 10 11 12 11 11 9 10 10 9 15 14 11 13 8 9 5 10 6 6 8 3 2 4 2 1 2
50 50 47 46 42 36 31 28 25 32 34 30 29 24 19 15 15 11 9 12 12 10 11 8 11 10 14 14 13 12 9 5 13 8 9 11 8 1 3 4 9 8 4
53 49 51 48 43 38 35 31 29 31 34 35 31 29 23 18 16 12 10 10 12 11 10 7 11 12 12 15 15 11 11 8 13 8 11 13 10 5 2 4 2 6 9
53 54 56 49 45 41 38 35 32 30 31 29 27 24 21 22 18 15 14 13 14 15 13 11 14 15 11 15 15 13 13 9 11 8 14 13 13 8 7 6 3 1 4
56 55 56 52 48 44 40 37 35 34 30 30 27 25 24 23 20 17 15 14 15 17 17 15 15 16 13 13 14 15 12 13 12 8 11 15 16 15 12 9 9 5 4